Tracking 31027 objects as of 19-Jul-2025
HD Live streaming from Space Station
objects crossing your sky now

STARLINK-30435

Track STARLINK-30435 now!
10-day predictions
STARLINK-30435 is classified as:


NORAD ID: 57842
Int'l Code: 2023-141C
Perigee: 481.6 km
Apogee: 483.2 km
Inclination: 53.2 °
Period: 94.1 minutes
Semi major axis: 6853 km
RCS: Unknown
Launch date: September 12, 2023
Source: United States (US)
Launch site: AIR FORCE WESTERN TEST RANGE (AFWTR)
Your satellite tracking list
GALASSIA
Track 1 satellite(s)




NASA's NSSDC Master Catalog

Two Line Element Set (TLE):
1 57842U 23141C   25199.52584074  .00000967  00000-0  44787-4 0  9994
2 57842  53.1603 291.8310 0001146  81.8551 278.2580 15.30189944104472
Source of the keplerian elements: AFSPC